Stations météo

Publicité
Ajaccio, France (7761): Température de l'air & dewpoint: 18.03.2019 00:00:00 - 24.03.2019 00:00:00 (CET)Ajaccio, France (7761): Température de l'air 5cm: 18.03.2019 00:00:00 - 24.03.2019 00:00:00 (CET)Ajaccio, France (7761): Température de l'air -20cm & Température de l'air -100cm: 18.03.2019 00:00:00 - 24.03.2019 00:00:00 (CET)Ajaccio, France (7761): Vitesse du vent & gusts: 18.03.2019 00:00:00 - 24.03.2019 00:00:00 (CET)Ajaccio, France (7761): Direction du vent: 18.03.2019 00:00:00 - 24.03.2019 00:00:00 (CET)Ajaccio, France (7761): reduced air pressure: 18.03.2019 00:00:00 - 24.03.2019 00:00:00 (CET)Ajaccio, France (7761): visibility: 18.03.2019 00:00:00 - 24.03.2019 00:00:00 (CET)Ajaccio, France (7761): Ensoleillement: 18.03.2019 00:00:00 - 24.03.2019 00:00:00 (CET)Ajaccio, France (7761): Quantités de précipitations: 18.03.2019 00:00:00 - 24.03.2019 00:00:00 (CET)
Date & Time tt [°C] td [°C] tt 5cm [°C] tt -20cm [°C] tt -100cm [°C] ff [km/h] ff [knt] fx [km/h] fx [knt] dd ppp [hPa] vv [km] sd [min] rr [mm]
24.03.2019 00:00:00 - - - - - - - - - - - - - -
23.03.2019 23:00:00 8,5 3,9 6,2 16,0 14,4 11 6 14 8 NE 1023,6 18 0 0,0
23.03.2019 22:00:00 9,6 4,0 8,0 16,0 14,4 9 5 14 7 NE 1023,4 22 0 0,0
23.03.2019 21:00:00 10,7 4,2 9,3 15,9 14,4 10 5 14 7 ENE 1023,3 22 0 0,0
23.03.2019 20:00:00 12,1 4,3 9,8 15,7 14,4 6 3 11 6 ENE 1022,9 29 0 0,0
23.03.2019 19:00:00 14,3 4,0 10,6 15,5 14,4 0 0 6 3 N 1022,3 47 23 0,0
23.03.2019 18:00:00 17,1 4,1 17,2 15,2 14,4 6 3 9 5 S 1022,1 46 60 0,0
23.03.2019 17:00:00 17,9 5,1 19,3 14,9 14,4 5 3 10 6 WSW 1021,9 52 60 0,0
23.03.2019 16:00:00 17,2 8,6 18,7 14,7 14,4 8 5 15 8 SW 1022,3 31 60 0,0
23.03.2019 15:00:00 16,9 10,7 19,3 14,5 14,4 12 6 16 9 SSW 1022,5 28 60 0,0
23.03.2019 14:00:00 17,0 10,1 23,2 14,3 14,4 11 6 16 9 SSW 1023,1 26 60 0,0
23.03.2019 13:00:00 16,9 10,7 23,8 14,3 14,4 13 7 17 9 SSW 1023,5 24 60 0,0
23.03.2019 12:00:00 16,2 9,8 25,0 14,3 14,4 12 7 20 11 SW 1023,6 22 60 0,0
23.03.2019 11:00:00 15,8 8,8 24,3 14,4 14,4 11 6 14 8 WSW 1023,8 22 60 0,0
23.03.2019 10:00:00 15,0 5,8 22,9 14,5 14,3 6 4 10 6 W 1024,1 20 60 0,0
23.03.2019 09:00:00 13,5 5,9 11,5 14,6 14,4 2 1 9 5 S 1024,3 32 60 0,0
23.03.2019 08:00:00 7,3 4,1 5,1 14,7 14,4 6 4 10 6 ENE 1024,1 26 37 0,0
23.03.2019 07:00:00 5,9 2,7 4,0 14,8 14,4 7 4 10 5 NE 1023,8 18 0 0,0
23.03.2019 06:00:00 5,6 2,2 3,9 15,0 14,4 5 3 14 7 ENE 1023,6 21 0 0,0
23.03.2019 05:00:00 6,7 2,9 4,7 15,0 14,3 8 4 14 8 NE 1023,5 19 0 0,0
23.03.2019 04:00:00 6,9 3,1 5,0 15,2 14,4 7 4 14 8 NE 1023,9 20 0 0,0
23.03.2019 03:00:00 7,9 3,2 5,8 15,3 14,4 9 5 14 8 ENE 1024,2 24 0 0,0
23.03.2019 02:00:00 7,8 3,3 6,0 15,3 14,4 11 6 15 8 NE 1024,5 26 0 0,0
23.03.2019 01:00:00 8,9 3,3 6,3 15,4 14,3 9 5 20 11 NE 1024,7 26 0 0,0
23.03.2019 00:00:00 8,1 3,5 6,5 15,4 14,4 13 7 20 11 NE 1025,0 24 0 0,0
22.03.2019 23:00:00 9,2 3,8 7,1 15,4 14,3 10 5 15 8 NE 1025,4 21 0 0,0
22.03.2019 22:00:00 9,9 4,1 8,4 15,4 14,3 10 6 15 8 NE 1025,5 21 0 0,0
22.03.2019 21:00:00 11,0 4,4 9,2 15,3 14,3 13 7 16 9 NE 1025,4 23 0 0,0
22.03.2019 20:00:00 12,3 5,0 8,0 15,2 14,3 8 5 12 7 NE 1025,1 11 0 0,0
22.03.2019 19:00:00 14,8 6,4 12,1 14,9 14,3 7 4 14 8 S 1024,5 37 19 0,0
22.03.2019 18:00:00 17,1 7,2 16,2 14,7 14,3 11 6 19 11 S 1024,2 38 60 0,0
22.03.2019 17:00:00 18,9 6,4 19,3 14,4 14,3 11 6 20 11 S 1024,2 52 60 0,0
22.03.2019 16:00:00 19,1 7,5 20,6 14,2 14,3 16 9 25 13 S 1024,6 50 60 0,0
22.03.2019 15:00:00 20,6 6,2 23,0 14,0 14,3 13 7 22 12 SW 1024,8 51 60 0,0
22.03.2019 14:00:00 20,8 6,3 26,8 13,9 14,3 16 9 23 13 SSW 1025,1 52 60 0,0
22.03.2019 13:00:00 19,2 8,5 26,4 13,9 14,3 19 10 25 14 SSW 1025,8 50 60 0,0
22.03.2019 12:00:00 18,7 7,2 24,9 13,9 14,3 14 7 23 12 SSW 1026,1 51 60 0,0
22.03.2019 11:00:00 16,8 9,2 25,7 13,9 14,3 10 5 16 8 SSW 1026,0 20 60 0,0
22.03.2019 10:00:00 15,9 5,8 23,2 14,1 14,3 10 5 16 9 SW 1026,0 36 60 0,0
22.03.2019 09:00:00 15,1 5,3 14,4 14,2 14,3 0 0 12 6 N 1025,6 30 60 0,0
22.03.2019 08:00:00 10,2 3,2 6,4 14,3 14,3 7 4 16 9 NE 1025,5 38 60 0,0
22.03.2019 07:00:00 6,5 2,2 4,6 14,4 14,3 11 6 16 9 NE 1025,1 43 1 0,0
22.03.2019 06:00:00 6,3 2,4 4,1 14,5 14,3 12 7 22 12 ENE 1024,8 41 0 0,0
22.03.2019 05:00:00 6,1 2,4 4,3 14,6 14,3 6 3 11 6 NE 1024,8 37 0 0,0
22.03.2019 04:00:00 6,3 2,2 4,7 14,7 14,3 9 5 20 11 NE 1024,4 37 0 0,0
22.03.2019 03:00:00 6,3 1,8 4,9 14,8 14,3 12 6 20 11 ENE 1024,6 37 0 0,0
22.03.2019 02:00:00 6,7 2,4 5,1 14,8 14,3 11 6 18 10 NE 1024,8 28 0 0,0
22.03.2019 01:00:00 7,0 2,5 5,5 14,9 14,3 12 6 19 10 NE 1025,0 31 0 0,0
22.03.2019 00:00:00 7,3 2,8 5,8 15,0 14,3 11 6 16 8 NE 1025,2 25 0 0,0
21.03.2019 23:00:00 7,5 3,2 5,9 15,0 14,3 7 4 16 8 NE 1025,5 18 0 0,0
21.03.2019 22:00:00 7,9 3,7 5,9 15,0 14,3 11 6 19 11 NE 1025,4 19 0 0,0
21.03.2019 21:00:00 9,0 4,0 6,8 14,9 14,3 7 4 9 5 NE 1025,1 23 0 0,0
21.03.2019 20:00:00 11,0 4,4 7,0 14,7 14,3 4 2 7 4 N 1024,8 38 0 0,0
21.03.2019 19:00:00 12,8 6,2 7,0 14,6 14,3 3 1 5 3 E 1024,3 53 19 0,0
21.03.2019 18:00:00 15,1 6,6 14,0 14,4 14,3 3 1 11 6 WSW 1023,9 55 60 0,0
21.03.2019 17:00:00 15,6 6,3 17,0 14,1 14,3 10 5 18 10 SW 1023,7 60 60 0,0
21.03.2019 16:00:00 16,3 6,4 18,4 13,9 14,2 14 8 21 12 SW 1023,7 58 60 0,0
21.03.2019 15:00:00 16,5 5,7 18,9 13,7 14,3 18 10 27 14 SSW 1023,8 39 60 0,0
21.03.2019 14:00:00 16,5 6,0 23,6 13,6 14,3 18 10 24 13 SSW 1024,0 46 60 0,0
21.03.2019 13:00:00 16,5 6,9 27,9 13,6 14,3 17 9 21 12 SW 1024,3 52 60 0,0
21.03.2019 12:00:00 15,9 8,1 27,0 13,6 14,3 16 9 21 11 WSW 1024,6 19 60 0,0
21.03.2019 11:00:00 14,9 4,0 24,0 13,7 14,3 10 6 14 8 SW 1024,9 20 60 0,0
21.03.2019 10:00:00 14,3 2,2 20,7 13,8 14,3 6 4 12 6 SSW 1024,9 60 60 0,0
21.03.2019 09:00:00 12,5 0,9 11,2 13,9 14,3 4 2 11 6 SE 1024,9 47 60 0,0
21.03.2019 08:00:00 7,0 0,4 4,1 14,1 14,3 8 4 16 9 NE 1024,7 50 60 0,0
21.03.2019 07:00:00 4,1 -0,5 1,7 14,2 14,3 10 5 16 8 NE 1024,2 52 2 0,0
21.03.2019 06:00:00 3,2 -0,6 1,4 14,4 14,3 8 5 12 6 NE 1023,8 42 0 0,0
21.03.2019 05:00:00 4,3 -0,9 2,5 14,5 14,3 6 3 12 7 ENE 1023,6 56 0 0,0
21.03.2019 04:00:00 4,9 -0,7 2,4 14,6 14,3 6 3 11 6 ENE 1023,4 47 0 0,0
21.03.2019 03:00:00 4,5 -0,5 2,6 14,7 14,3 8 5 12 7 ENE 1023,7 59 0 0,0
21.03.2019 02:00:00 5,4 0,2 2,4 14,8 14,3 5 3 12 7 ENE 1024,6 54 0 0,0
21.03.2019 01:00:00 5,9 0,2 1,9 14,8 14,3 5 3 13 7 ENE 1024,9 59 0 0,0
21.03.2019 00:00:00 7,2 1,3 4,3 14,9 14,3 7 4 19 10 NE 1025,1 54 0 0,0
20.03.2019 23:00:00 7,4 1,9 4,6 14,9 14,3 10 5 18 10 NE 1025,2 47 0 0,0
20.03.2019 22:00:00 7,2 2,3 4,9 14,9 14,2 7 4 18 10 ENE 1025,5 33 0 0,0
20.03.2019 21:00:00 9,3 2,8 7,3 14,8 14,2 9 5 16 9 NNE 1025,4 57 0 0,0
20.03.2019 20:00:00 10,2 3,9 6,7 14,7 14,2 9 5 13 7 ENE 1025,2 35 0 0,0
20.03.2019 19:00:00 12,3 5,0 9,6 14,6 14,2 4 2 13 7 ESE 1024,6 60 20 0,0
20.03.2019 18:00:00 14,4 6,0 13,6 14,4 14,2 11 6 18 10 SW 1024,0 56 36 0,0
20.03.2019 17:00:00 13,7 5,3 13,6 14,2 14,2 15 8 19 11 SSW 1023,3 60 35 0,0
20.03.2019 16:00:00 15,3 3,4 15,8 14,0 14,2 14 7 21 12 SSW 1023,0 46 55 0,0
20.03.2019 15:00:00 15,7 2,8 17,4 13,8 14,2 16 9 27 15 SSW 1023,2 56 60 0,0
20.03.2019 14:00:00 16,0 1,7 21,6 13,7 14,2 20 11 28 15 SSW 1023,3 60 60 0,0
20.03.2019 13:00:00 16,3 5,0 25,9 13,7 14,2 21 12 28 15 SSW 1023,5 60 60 0,0
20.03.2019 12:00:00 15,3 4,6 26,3 13,8 14,2 17 9 25 14 WSW 1023,5 60 60 0,0
20.03.2019 11:00:00 14,6 3,1 24,2 13,9 14,2 16 9 21 12 WSW 1023,5 60 60 0,0
20.03.2019 10:00:00 13,3 1,9 20,4 14,0 14,2 10 6 13 7 SW 1023,7 60 60 0,0
20.03.2019 09:00:00 11,7 1,6 7,8 14,1 14,2 5 3 18 10 ENE 1023,6 57 60 0,0
20.03.2019 08:00:00 4,9 0,5 1,5 14,3 14,2 9 5 16 9 NE 1023,1 58 60 0,0
20.03.2019 07:00:00 2,4 -0,5 1,0 14,4 14,2 8 4 17 9 NNE 1022,8 54 3 0,0
20.03.2019 06:00:00 2,9 -0,2 1,0 14,5 14,2 10 5 16 9 NE 1022,2 60 0 0,0
20.03.2019 05:00:00 3,6 0,1 1,3 14,6 14,2 13 7 19 11 NNE 1021,9 59 0 0,0
20.03.2019 04:00:00 3,0 0,2 1,3 14,7 14,2 10 5 16 9 NE 1021,9 55 0 0,0
20.03.2019 03:00:00 4,2 0,9 1,8 14,8 14,2 9 5 16 8 NE 1021,9 49 0 0,0
20.03.2019 02:00:00 4,3 1,2 2,4 15,0 14,2 9 5 14 7 NE 1022,2 46 0 0,0
20.03.2019 01:00:00 4,5 1,9 2,9 15,0 14,2 10 5 13 7 NE 1022,3 39 0 0,0
20.03.2019 00:00:00 5,2 2,2 3,6 15,0 14,2 9 5 14 8 NE 1022,5 56 0 0,0
19.03.2019 23:00:00 6,8 2,7 5,1 15,0 14,2 8 4 15 8 NE 1022,4 60 0 0,0
19.03.2019 22:00:00 7,9 3,0 6,3 15,0 14,2 10 5 14 7 NE 1022,1 59 0 0,0
19.03.2019 21:00:00 8,1 4,9 6,7 14,9 14,2 9 5 15 8 NNE 1021,6 54 0 0,0
19.03.2019 20:00:00 9,7 6,2 8,1 14,8 14,2 6 4 12 7 NE 1021,0 42 0 0,0
19.03.2019 19:00:00 11,1 7,2 10,0 14,6 14,2 8 5 23 12 NE 1020,3 50 18 0,0
19.03.2019 18:00:00 12,0 5,6 11,7 14,4 14,1 13 7 26 14 E 1019,8 17 19 0,0
19.03.2019 17:00:00 13,4 5,0 15,2 14,2 14,1 13 7 28 15 E 1019,1 60 60 0,0
19.03.2019 16:00:00 15,3 4,0 16,9 14,0 14,2 16 9 29 16 S 1018,8 60 55 0,0
19.03.2019 15:00:00 15,3 6,8 19,3 13,8 14,1 16 9 24 13 SSW 1018,6 20 20 0,0
19.03.2019 14:00:00 15,7 6,1 23,8 13,7 14,1 13 7 22 12 WSW 1018,6 19 60 0,0
19.03.2019 13:00:00 15,4 5,9 24,1 13,7 14,2 18 10 27 14 WSW 1018,6 47 58 0,0
19.03.2019 12:00:00 15,1 5,3 26,5 13,7 14,1 18 10 24 13 W 1018,5 19 60 0,0
19.03.2019 11:00:00 14,4 2,9 26,2 13,9 14,1 10 6 14 8 WSW 1018,4 60 60 0,0
19.03.2019 10:00:00 13,5 1,8 18,5 13,9 14,1 5 3 10 6 W 1018,4 60 60 0,0
19.03.2019 09:00:00 10,6 2,4 10,7 14,1 14,1 8 4 16 9 NNE 1018,1 19 60 0,0
19.03.2019 08:00:00 6,0 0,9 2,0 14,2 14,1 8 5 16 9 NE 1017,8 58 60 0,0
19.03.2019 07:00:00 3,1 -0,2 0,9 14,4 14,1 10 6 19 11 NE 1017,4 60 4 0,0
19.03.2019 06:00:00 3,7 0,0 1,6 14,5 14,1 11 6 16 9 NE 1017,0 55 0 0,0
19.03.2019 05:00:00 3,2 0,3 1,8 14,6 14,1 9 5 16 8 ENE 1016,8 56 0 0,0
19.03.2019 04:00:00 3,6 1,0 2,0 14,7 14,1 13 7 17 9 NE 1016,7 49 0 0,0
19.03.2019 03:00:00 4,2 1,2 2,6 14,8 14,1 11 6 17 9 NE 1016,6 42 0 0,0
19.03.2019 02:00:00 4,8 1,5 3,2 15,0 14,1 12 7 19 11 NNE 1016,9 40 0 0,0
19.03.2019 01:00:00 5,7 1,8 3,7 15,0 14,1 10 5 16 9 NE 1017,3 36 0 0,0
19.03.2019 00:00:00 5,9 2,4 4,1 15,1 14,1 11 6 14 8 NE 1017,5 31 0 0,0
18.03.2019 23:00:00 7,3 2,6 4,9 15,1 14,1 10 5 16 9 NNE 1017,5 30 0 0,0
18.03.2019 22:00:00 8,3 2,9 5,8 15,1 14,1 8 4 12 7 NE 1017,4 26 0 0,0
18.03.2019 21:00:00 8,8 2,8 6,7 15,1 14,1 5 3 9 5 ENE 1016,8 29 0 0,0
18.03.2019 20:00:00 11,1 2,6 8,7 15,0 14,1 5 3 13 7 NE 1016,3 37 0 0,0
18.03.2019 19:00:00 11,6 2,1 10,2 14,8 14,1 3 2 8 4 NE 1015,7 38 3 0,0
18.03.2019 18:00:00 12,8 2,3 13,1 14,6 14,0 7 4 14 8 SSW 1015,1 20 39 0,0
18.03.2019 17:00:00 12,9 3,0 14,7 14,5 14,0 11 6 20 11 SSW 1014,8 34 55 0,0
18.03.2019 16:00:00 14,1 2,9 16,9 14,3 14,0 13 7 22 12 SW 1014,8 20 60 0,0
18.03.2019 15:00:00 14,7 3,2 18,4 14,2 14,0 17 9 26 14 SW 1014,9 20 60 0,0
18.03.2019 14:00:00 14,4 3,5 22,6 14,1 14,0 19 11 29 16 SW 1015,4 42 60 0,0
18.03.2019 13:00:00 15,0 3,8 24,6 14,1 14,0 21 12 32 17 WSW 1015,7 19 60 0,0
18.03.2019 12:00:00 14,9 3,7 24,5 14,1 14,0 21 12 31 17 WSW 1015,7 19 60 0,0
18.03.2019 11:00:00 14,5 1,7 21,6 14,2 14,0 11 6 25 13 W 1016,0 60 60 0,0
18.03.2019 10:00:00 13,9 1,8 13,6 14,3 14,0 13 7 29 15 NW 1015,7 20 51 0,0
18.03.2019 09:00:00 11,5 2,5 9,7 14,4 14,0 11 6 25 13 NW 1015,6 35 42 0,0
18.03.2019 08:00:00 7,0 4,5 4,8 14,5 14,0 5 3 16 8 NE 1015,3 30 3 0,0
18.03.2019 07:00:00 6,4 3,7 4,1 14,6 14,0 6 3 11 6 E 1014,9 33 0 0,0
18.03.2019 06:00:00 7,2 3,6 5,3 14,7 14,0 4 2 13 7 ENE 1014,6 52 0 0,0
18.03.2019 05:00:00 7,4 3,6 6,2 14,8 14,0 7 4 14 8 ENE 1014,3 59 0 0,0
18.03.2019 04:00:00 6,8 3,2 5,0 14,9 13,9 8 4 13 7 NE 1014,0 55 0 0,0
18.03.2019 03:00:00 7,3 2,8 5,8 15,1 13,9 8 4 11 6 NE 1014,3 60 0 0,0
18.03.2019 02:00:00 8,4 2,6 5,6 15,2 13,9 7 4 15 8 NE 1014,5 49 0 0,0
18.03.2019 01:00:00 8,4 2,8 7,1 15,2 13,9 13 7 17 9 NE 1014,5 60 0 0,0
18.03.2019 00:00:00 7,5 2,8 5,5 15,3 13,9 13 7 22 12 NNE 1014,8 53 0 0,0

tt = Température de l'air
td = dewpoint
tt 5cm = Température de l'air 5cm
tt -20cm = Température de l'air -20cm
tt -100cm = Température de l'air -100cm
ff = Vitesse du vent
fx = gusts
dd = Direction du vent
ppp = reduced air pressure
vv = visibility
sd = Ensoleillement
rr = Quantités de précipitations

stations d'obs. à proximité